フィエチジョシュ彗星

C/2024 J2 ( Wierzchos )

English version
Home page
Updated on July 13, 2025

---------------------------------------------------------------------

・ プロフィール

発見日 2024年5月11日
発見光度 21.2等
発見者 Kacper W. Wierzchos (Mt. Lemmon Survey)

・ 写真集

・ 軌道要素

Epoch 2025 May 5.0 TT = JDT 2460800.5
T 2025 Mar. 19.78388 TT                                 Pike
q   1.8108908            (2000.0)            P               Q
z  +0.0067884      Peri.  143.15983     +0.80786110     +0.56870343
 +/-0.0000048      Node   189.05918     -0.21962668     +0.53408847
e   0.9877070      Incl.   79.29720     +0.54692281     -0.62556049
From 266 observations 2024 Mar. 12-2025 Feb. 5, mean residual 0".9.

・ 星図

・ 光度変化

        m1 = 9.5 + 5 logΔ + 12.5 log r

---------------------------------------------------------------------

軌道要素はM.P.E.C. 2025-D254に掲載されたものです。
星図はステラナビゲータ Ver.11 (アストロアーツ) で作成したものです。
光度グラフはComet for Windowsで作成したものです。

---------------------------------------------------------------------

Copyright(C) Seiichi Yoshida (comet@aerith.net). All rights reserved.